• Em Portugal
  • Lista de países
  • Para 7 dias
  • Temperatura da água
  • Mapas de satélite
  • Mapa do tempo
  • Widgets de tempo
  • user-avatar
    Iniciar Sessão

    Previsão horária em Ongandyera

    Hoje, 23 Fevereiro, Sexta-feira

    Tempo Temperatura Precipitação Vento Pressão Humidade
    00:00 +26°C° 0 mm 3 m/s 665 mmHg 53%
    01:00 +26°C° 0 mm 3 m/s 665 mmHg 54%
    02:00 +25°C° 0 mm 3 m/s 665 mmHg 55%
    03:00 +25°C° 0 mm 2 m/s 665 mmHg 56%
    04:00 +24°C° 0 mm 1 m/s 664 mmHg 57%
    05:00 +24°C° 0 mm 2 m/s 665 mmHg 56%
    06:00 +24°C° 0 mm 2 m/s 665 mmHg 56%
    07:00 +24°C° 0 mm 2 m/s 665 mmHg 55%
    08:00 +26°C° 0 mm 2 m/s 665 mmHg 48%
    09:00 +27°C° 0 mm 2 m/s 666 mmHg 42%
    10:00 +29°C° 0 mm 3 m/s 666 mmHg 35%
    11:00 +30°C° 0 mm 2 m/s 666 mmHg 31%
    12:00 +32°C° 0 mm 2 m/s 665 mmHg 27%
    13:00 +34°C° 0 mm 2 m/s 665 mmHg 23%
    14:00 +35°C° 0 mm 2 m/s 665 mmHg 23%
    15:00 +36°C° 0 mm 2 m/s 664 mmHg 22%
    16:00 +36°C° 0 mm 2 m/s 664 mmHg 21%
    17:00 +35°C° 0 mm 3 m/s 664 mmHg 23%
    18:00 +34°C° 0 mm 3 m/s 665 mmHg 25%
    19:00 +33°C° 0 mm 3 m/s 665 mmHg 26%
    20:00 +30°C° 0 mm 4 m/s 665 mmHg 30%
    21:00 +29°C° 0 mm 5 m/s 666 mmHg 34%
    22:00 +27°C° 0 mm 6 m/s 666 mmHg 38%
    23:00 +26°C° 0 mm 5 m/s 666 mmHg 40%

    Amanhã, 24 Fevereiro, Sábado

    Tempo Temperatura Precipitação Vento Pressão Humidade
    00:00 +25°C° 0 mm 4 m/s 666 mmHg 42%
    01:00 +24°C° 0 mm 2 m/s 666 mmHg 43%
    02:00 +24°C° 0 mm 3 m/s 665 mmHg 43%
    03:00 +23°C° 0 mm 4 m/s 665 mmHg 42%
    04:00 +22°C° 0 mm 4 m/s 665 mmHg 41%
    05:00 +22°C° 0 mm 4 m/s 665 mmHg 42%
    06:00 +22°C° 0 mm 4 m/s 666 mmHg 44%
    07:00 +22°C° 0 mm 3 m/s 666 mmHg 45%
    08:00 +25°C° 0 mm 3 m/s 667 mmHg 39%
    09:00 +27°C° 0 mm 3 m/s 667 mmHg 32%
    10:00 +29°C° 0 mm 3 m/s 668 mmHg 26%
    11:00 +32°C° 0 mm 4 m/s 667 mmHg 23%
    12:00 +33°C° 0 mm 4 m/s 667 mmHg 20%
    13:00 +35°C° 0 mm 4 m/s 667 mmHg 17%
    14:00 +35°C° 0 mm 4 m/s 666 mmHg 16%
    15:00 +36°C° 0 mm 4 m/s 666 mmHg 16%
    16:00 +36°C° 0 mm 5 m/s 665 mmHg 16%
    17:00 +35°C° 0 mm 5 m/s 665 mmHg 18%
    18:00 +33°C° 0 mm 5 m/s 666 mmHg 20%
    19:00 +32°C° 0 mm 5 m/s 666 mmHg 21%
    20:00 +29°C° 0 mm 6 m/s 666 mmHg 25%
    21:00 +28°C° 0 mm 6 m/s 667 mmHg 28%
    22:00 +26°C° 0 mm 7 m/s 667 mmHg 32%
    23:00 +24°C° 0 mm 6 m/s 667 mmHg 34%

    Depois de amanhã, 25 Fevereiro, Domingo

    Tempo Temperatura Precipitação Vento Pressão Humidade
    00:00 +25°C° 0 mm 5 m/s 666 mmHg 36%
    01:00 +23°C° 0 mm 4 m/s 666 mmHg 38%
    02:00 +22°C° 0 mm 4 m/s 666 mmHg 39%
    03:00 +21°C° 0 mm 3 m/s 666 mmHg 41%
    04:00 +21°C° 0 mm 3 m/s 665 mmHg 42%
    05:00 +21°C° 0 mm 2 m/s 666 mmHg 42%
    06:00 +21°C° 0 mm 2 m/s 666 mmHg 42%
    07:00 +21°C° 0 mm 2 m/s 667 mmHg 43%
    08:00 +24°C° 0 mm 2 m/s 668 mmHg 36%
    09:00 +26°C° 0 mm 2 m/s 668 mmHg 29%
    10:00 +29°C° 0 mm 2 m/s 669 mmHg 23%
    11:00 +30°C° 0 mm 3 m/s 668 mmHg 21%
    12:00 +33°C° 0 mm 3 m/s 668 mmHg 18%
    13:00 +34°C° 0 mm 3 m/s 668 mmHg 16%
    14:00 +35°C° 0 mm 3 m/s 667 mmHg 16%
    15:00 +35°C° 0 mm 3 m/s 667 mmHg 16%
    16:00 +36°C° 0 mm 4 m/s 666 mmHg 16%
    17:00 +35°C° 0 mm 4 m/s 666 mmHg 17%
    18:00 +33°C° 0 mm 5 m/s 666 mmHg 19%
    19:00 +32°C° 0 mm 6 m/s 667 mmHg 20%
    20:00 +29°C° 0 mm 6 m/s 667 mmHg 22%
    21:00 +28°C° 0 mm 6 m/s 667 mmHg 25%
    22:00 +26°C° 0 mm 7 m/s 668 mmHg 27%
    23:00 +24°C° 0 mm 6 m/s 667 mmHg 28%

    26 Fevereiro, Segunda-feira

    Tempo Temperatura Precipitação Vento Pressão Humidade
    00:00 +23°C° 0 mm 5 m/s 667 mmHg 30%
    01:00 +22°C° 0 mm 5 m/s 667 mmHg 32%
    02:00 +22°C° 0 mm 4 m/s 667 mmHg 34%
    03:00 +21°C° 0 mm 3 m/s 667 mmHg 37%
    04:00 +21°C° 0 mm 2 m/s 666 mmHg 39%
    05:00 +21°C° 0 mm 2 m/s 667 mmHg 39%
    06:00 +21°C° 0 mm 2 m/s 667 mmHg 40%
    07:00 +22°C° 0 mm 1 m/s 668 mmHg 40%
    08:00 +24°C° 0 mm 2 m/s 668 mmHg 35%
    09:00 +26°C° 0 mm 3 m/s 669 mmHg 30%
    10:00 +28°C° 0 mm 3 m/s 669 mmHg 24%
    11:00 +30°C° 0 mm 3 m/s 669 mmHg 22%
    12:00 +31°C° 0 mm 3 m/s 668 mmHg 19%
    13:00 +34°C° 0 mm 3 m/s 668 mmHg 16%
    14:00 +34°C° 0 mm 3 m/s 667 mmHg 16%
    15:00 +35°C° 0 mm 3 m/s 667 mmHg 16%
    16:00 +35°C° 0 mm 3 m/s 666 mmHg 16%
    17:00 +34°C° 0 mm 3 m/s 666 mmHg 17%
    18:00 +33°C° 0 mm 3 m/s 666 mmHg 19%
    19:00 +30°C° 0 mm 3 m/s 667 mmHg 21%
    20:00 +29°C° 0 mm 3 m/s 667 mmHg 23%
    21:00 +28°C° 0 mm 4 m/s 667 mmHg 26%
    22:00 +27°C° 0 mm 5 m/s 667 mmHg 29%
    23:00 +26°C° 0 mm 4 m/s 667 mmHg 31%

    27 Fevereiro, Terça-feira

    Tempo Temperatura Precipitação Vento Pressão Humidade
    00:00 +25°C° 0 mm 4 m/s 667 mmHg 32%
    01:00 +24°C° 0 mm 3 m/s 667 mmHg 34%
    02:00 +22°C° 0 mm 3 m/s 667 mmHg 36%
    03:00 +23°C° 0 mm 2 m/s 667 mmHg 37%
    04:00 +21°C° 0 mm 2 m/s 666 mmHg 39%
    05:00 +21°C° 0 mm 2 m/s 667 mmHg 38%
    06:00 +21°C° 0 mm 2 m/s 667 mmHg 37%
    07:00 +21°C° 0 mm 2 m/s 668 mmHg 36%
    08:00 +25°C° 0 mm 2 m/s 668 mmHg 31%
    09:00 +27°C° 0 mm 3 m/s 669 mmHg 25%
    10:00 +29°C° 0 mm 3 m/s 669 mmHg 20%
    11:00 +30°C° 0 mm 3 m/s 669 mmHg 18%
    12:00 +33°C° 0 mm 3 m/s 668 mmHg 17%
    13:00 +34°C° 0 mm 3 m/s 668 mmHg 16%
    14:00 +35°C° 0 mm 3 m/s 667 mmHg 17%
    15:00 +35°C° 0 mm 3 m/s 667 mmHg 17%
    16:00 +35°C° 0 mm 3 m/s 666 mmHg 17%
    17:00 +34°C° 0 mm 2 m/s 666 mmHg 19%
    18:00 +32°C° 0 mm 2 m/s 667 mmHg 21%
    19:00 +31°C° 0 mm 2 m/s 667 mmHg 23%
    20:00 +29°C° 0 mm 4 m/s 667 mmHg 23%
    21:00 +28°C° 0 mm 5 m/s 667 mmHg 24%
    22:00 +27°C° 0 mm 6 m/s 668 mmHg 25%
    23:00 +26°C° 0 mm 5 m/s 667 mmHg 26%

    28 Fevereiro, Quarta-feira

    Tempo Temperatura Precipitação Vento Pressão Humidade
    00:00 +25°C° 0 mm 4 m/s 667 mmHg 28%
    01:00 +24°C° 0 mm 3 m/s 667 mmHg 29%
    02:00 +24°C° 0 mm 3 m/s 667 mmHg 30%
    03:00 +23°C° 0 mm 2 m/s 667 mmHg 32%
    04:00 +22°C° 0 mm 1 m/s 667 mmHg 33%
    05:00 +21°C° 0 mm 2 m/s 667 mmHg 33%
    06:00 +23°C° 0 mm 2 m/s 668 mmHg 32%
    07:00 +23°C° 0 mm 2 m/s 668 mmHg 32%
    08:00 +25°C° 0 mm 3 m/s 668 mmHg 27%
    09:00 +28°C° 0 mm 3 m/s 669 mmHg 22%
    10:00 +30°C° 0 mm 4 m/s 669 mmHg 18%
    11:00 +33°C° 0 mm 3 m/s 669 mmHg 17%
    12:00 +34°C° 0 mm 3 m/s 668 mmHg 16%
    13:00 +35°C° 0 mm 3 m/s 668 mmHg 15%
    14:00 +36°C° 0 mm 3 m/s 667 mmHg 15%
    15:00 +36°C° 0 mm 4 m/s 667 mmHg 15%
    16:00 +37°C° 0 mm 4 m/s 667 mmHg 14%
    17:00 +35°C° 0 mm 4 m/s 667 mmHg 16%
    18:00 +33°C° 0 mm 4 m/s 666 mmHg 18%
    19:00 +32°C° 0 mm 5 m/s 666 mmHg 19%
    20:00 +29°C° 0 mm 5 m/s 667 mmHg 22%
    21:00 +28°C° 0 mm 6 m/s 667 mmHg 24%
    22:00 +26°C° 0 mm 7 m/s 667 mmHg 27%
    23:00 +24°C° 0 mm 6 m/s 667 mmHg 28%
    Mostrar mais